Theta_e
324 328 328 328 330 331 333 337 339 340 342 343 340 340 338 337 334 333 330 331 329 329
323 328 330 331 333 335 335 337 339 340 341 341 341 339 335 331 324 323 322 320 321 321
320 325 332 334 333 331 333 334 337 339 340 339 340 336 333 332 323 318 317 318 317 316
320 328 330 331 330 331 332 332 334 337 339 337 335 334 334 327 321 317 315 314 313 311
319 323 326 328 329 329 330 331 334 336 337 336 335 329 324 321 318 315 313 312 311 308
314 320 320 321 325 329 329 328 332 333 333 333 326 326 323 322 317 316 314 312 310 307
308 318 318 320 323 323 327 328 329 333 329 325 323 321 319 319 317 316 314 312 310 307
307 314 319 323 323 325 326 328 329 328 327 324 322 320 319 319 319 313 308 307 306 305
305 311 317 318 321 324 324 326 326 325 323 323 322 311 311 313 311 309 305 303 304 305
306 310 320 321 319 319 320 321 320 320 319 314 313 307 307 308 308 306 304 303 301 300
306 315 321 320 318 318 316 314 312 310 311 310 306 303 303 305 307 305 303 301 301 300
306 314 318 317 314 312 311 311 308 305 305 305 303 301 301 303 303 301 300 300 300 300
307 315 317 315 312 310 308 305 305 304 304 303 302 301 298 301 301 299 298 299 299 300
307 315 316 313 311 307 305 302 301 301 302 303 302 300 298 297 300 298 298 298 297 298
Wind_Speed
9 7 7 5 4 3 2 4 8 9 9 11 10 10 7 1 4 5 3 1 2 6
8 8 7 7 6 5 6 5 7 8 9 11 12 11 11 7 10 11 6 6 4 4
9 9 9 9 11 10 6 7 7 9 10 13 14 13 9 7 7 14 10 7 6 4
10 10 9 7 7 9 7 7 7 9 10 11 11 12 10 11 12 13 13 11 12 7
10 7 7 5 6 5 6 4 7 8 9 9 12 11 14 14 13 16 15 13 13 12
11 7 5 3 2 2 5 5 6 10 9 11 10 14 14 16 17 14 14 14 15 14
10 8 5 5 5 7 1 3 6 7 9 11 14 13 13 15 16 14 11 11 13 13
10 9 7 6 4 1 12 9 7 6 8 11 13 11 16 18 19 19 18 9 9 10
11 12 5 5 3 5 4 5 8 6 8 9 7 14 16 16 12 13 18 19 13 14
10 12 3 5 7 7 5 7 7 8 8 9 10 16 19 21 14 15 15 19 16 14
9 10 2 5 6 8 8 7 8 8 9 11 9 16 19 22 16 15 16 15 17 18
7 8 5 6 6 8 11 9 10 8 10 13 11 15 22 21 17 16 16 14 16 17
6 5 3 5 7 6 10 9 12 10 10 15 16 11 12 22 15 18 14 14 16 23
5 4 4 6 7 9 11 12 13 13 11 13 13 14 14 11 15 15 15 13 13 12
Wind_Direction
264 231 223 219 185 155 312 166 187 195 205 202 185 170 147 163 199 141 94 211 150 138
286 241 212 185 167 171 173 201 208 191 202 215 188 166 150 151 142 86 82 70 38 87
297 252 221 189 192 184 175 183 190 198 206 213 190 174 159 128 126 118 119 123 121 101
302 274 230 215 221 169 161 184 201 199 197 213 188 179 167 158 143 125 127 128 127 99
293 285 249 215 211 163 161 153 219 216 184 184 179 160 151 151 140 138 137 135 129 116
305 285 278 231 265 129 142 171 211 209 185 163 166 158 159 150 138 142 141 143 135 133
312 297 257 229 219 139 26 218 208 190 158 151 156 150 144 140 132 132 137 155 134 136
310 294 237 233 208 88 191 214 158 132 148 155 152 147 149 152 152 145 120 94 103 121
308 307 253 252 193 153 191 149 124 127 138 144 151 146 131 125 122 122 118 120 117 109
300 303 305 170 170 166 172 109 109 114 131 112 119 131 130 128 130 126 120 121 124 114
292 301 268 131 124 118 104 103 95 91 111 114 120 132 133 127 122 118 118 124 125 120
285 290 210 153 128 126 105 106 82 98 110 119 117 133 128 120 118 112 111 117 116 118
278 270 203 117 124 106 100 96 109 101 107 120 121 99 127 125 123 118 118 109 112 113
260 219 148 113 119 112 114 107 96 96 100 114 112 98 77 86 128 127 124 122 123 123